Time,TemperatureF,DewpointF,PressureIn,WindDirection,WindDirectionDegrees,WindSpeedMPH,WindSpeedGustMPH,Humidity,HourlyPrecipIn,Conditions,Clouds,dailyrainin,SoftwareType,DateUTC
2013-12-25 00:05:00,14.5,11.3,30.46,East,79,2.0,2.0,87,0.00,,,0.00,Wunderground v.1.15,2013-12-25 05:05:00,
2013-12-25 00:15:00,14.3,11.4,30.46,East,84,2.0,2.0,88,0.00,,,0.00,Wunderground v.1.15,2013-12-25 05:15:00,
2013-12-25 00:20:00,14.3,11.4,30.45,ENE,75,2.0,3.0,88,0.00,,,0.00,Wunderground v.1.15,2013-12-25 05:20:00,
2013-12-25 00:25:00,14.1,11.2,30.44,East,84,2.0,4.0,88,0.00,,,0.00,Wunderground v.1.15,2013-12-25 05:25:00,
2013-12-25 00:30:00,14.1,11.2,30.44,ENE,63,2.0,2.0,88,0.00,,,0.00,Wunderground v.1.15,2013-12-25 05:30:00,
2013-12-25 00:35:00,14.0,11.4,30.43,East,87,2.0,2.0,89,0.00,,,0.00,Wunderground v.1.15,2013-12-25 05:35:00,
2013-12-25 00:40:00,13.7,11.1,30.43,East,101,3.0,3.0,89,0.00,,,0.00,Wunderground v.1.15,2013-12-25 05:40:00,
2013-12-25 00:45:00,13.6,10.7,30.43,East,83,3.0,4.0,88,0.00,,,0.00,Wunderground v.1.15,2013-12-25 05:45:00,
2013-12-25 00:55:00,13.6,11.0,30.42,ENE,67,3.0,5.0,89,0.00,,,0.00,Wunderground v.1.15,2013-12-25 05:55:00,
2013-12-25 01:00:00,13.6,10.7,30.42,ENE,70,4.0,4.0,88,0.00,,,0.00,Wunderground v.1.15,2013-12-25 06:00:00,
2013-12-25 01:05:00,13.6,10.7,30.41,ENE,76,4.0,4.0,88,0.00,,,0.00,Wunderground v.1.15,2013-12-25 06:05:00,
2013-12-25 01:15:00,13.8,10.9,30.41,ENE,67,4.0,4.0,88,0.00,,,0.00,Wunderground v.1.15,2013-12-25 06:15:00,
2013-12-25 01:20:00,14.0,11.1,30.41,ENE,65,3.0,3.0,88,0.00,,,0.00,Wunderground v.1.15,2013-12-25 06:20:00,
2013-12-25 01:30:00,14.3,11.4,30.40,ENE,77,2.0,2.0,88,0.00,,,0.00,Wunderground v.1.15,2013-12-25 06:30:00,
2013-12-25 01:35:00,14.6,11.7,30.40,NE,51,2.0,5.0,88,0.00,,,0.00,Wunderground v.1.15,2013-12-25 06:35:00,
2013-12-25 01:40:00,14.9,12.0,30.40,East,87,2.0,4.0,88,0.00,,,0.00,Wunderground v.1.15,2013-12-25 06:40:00,
2013-12-25 01:45:00,14.9,12.0,30.40,East,101,2.0,4.0,88,0.00,,,0.00,Wunderground v.1.15,2013-12-25 06:45:00,
2013-12-25 01:50:00,14.9,12.0,30.40,SE,137,2.0,5.0,88,0.00,,,0.00,Wunderground v.1.15,2013-12-25 06:50:00,
2013-12-25 02:00:00,15.0,12.1,30.39,East,89,3.0,3.0,88,0.00,,,0.00,Wunderground v.1.15,2013-12-25 07:00:00,
2013-12-25 02:05:00,15.0,12.3,30.39,SE,130,3.0,3.0,89,0.00,,,0.00,Wunderground v.1.15,2013-12-25 07:05:00,
2013-12-25 02:15:00,15.2,12.5,30.38,East,92,2.0,4.0,89,0.00,,,0.00,Wunderground v.1.15,2013-12-25 07:15:00,
2013-12-25 02:20:00,15.2,12.5,30.37,ENE,68,2.0,4.0,89,0.00,,,0.00,Wunderground v.1.15,2013-12-25 07:20:00,
2013-12-25 02:30:00,14.7,11.8,30.37,East,88,3.0,5.0,88,0.00,,,0.00,Wunderground v.1.15,2013-12-25 07:30:00,
2013-12-25 02:35:00,14.8,11.9,30.37,East,92,3.0,5.0,88,0.00,,,0.00,Wunderground v.1.15,2013-12-25 07:35:00,
2013-12-25 02:40:00,14.9,12.0,30.37,East,92,3.0,3.0,88,0.00,,,0.00,Wunderground v.1.15,2013-12-25 07:40:00,
2013-12-25 02:45:00,14.9,12.0,30.37,ENE,67,3.0,3.0,88,0.00,,,0.00,Wunderground v.1.15,2013-12-25 07:45:00,
2013-12-25 02:55:00,15.2,12.3,30.37,NE,42,3.0,5.0,88,0.00,,,0.00,Wunderground v.1.15,2013-12-25 07:55:00,
2013-12-25 03:00:00,15.3,12.4,30.37,ESE,105,3.0,3.0,88,0.00,,,0.00,Wunderground v.1.15,2013-12-25 08:00:00,
2013-12-25 03:05:00,15.4,12.5,30.37,ESE,109,3.0,4.0,88,0.00,,,0.00,Wunderground v.1.15,2013-12-25 08:05:00,
2013-12-25 03:15:00,15.8,12.9,30.36,SE,134,3.0,6.0,88,0.00,,,0.00,Wunderground v.1.15,2013-12-25 08:15:00,
2013-12-25 03:20:00,16.0,13.1,30.35,ENE,67,2.0,2.0,88,0.00,,,0.00,Wunderground v.1.15,2013-12-25 08:20:00,
2013-12-25 03:25:00,16.1,13.2,30.35,East,99,2.0,2.0,88,0.00,,,0.00,Wunderground v.1.15,2013-12-25 08:25:00,
2013-12-25 03:30:00,16.5,13.6,30.34,ENE,71,2.0,2.0,88,0.00,,,0.00,Wunderground v.1.15,2013-12-25 08:30:00,
2013-12-25 03:40:00,17.1,14.2,30.34,ESE,103,2.0,5.0,88,0.00,,,0.00,Wunderground v.1.15,2013-12-25 08:40:00,
2013-12-25 03:45:00,17.5,14.6,30.34,East,96,2.0,7.0,88,0.00,,,0.00,Wunderground v.1.15,2013-12-25 08:45:00,
2013-12-25 03:50:00,17.8,14.8,30.33,SE,131,2.0,2.0,88,0.00,,,0.00,Wunderground v.1.15,2013-12-25 08:50:00,
2013-12-25 03:55:00,17.9,14.9,30.33,East,81,3.0,3.0,88,0.00,,,0.00,Wunderground v.1.15,2013-12-25 08:55:00,
2013-12-25 04:00:00,17.8,14.6,30.33,ESE,119,3.0,3.0,87,0.00,,,0.00,Wunderground v.1.15,2013-12-25 09:00:00,
2013-12-25 04:05:00,17.7,14.2,30.33,ESE,104,2.0,3.0,86,0.00,,,0.00,Wunderground v.1.15,2013-12-25 09:05:00,
2013-12-25 04:15:00,17.8,13.8,30.32,ESE,106,3.0,5.0,84,0.00,,,0.00,Wunderground v.1.15,2013-12-25 09:15:00,
2013-12-25 04:20:00,17.9,13.3,30.32,SE,127,4.0,13.0,82,0.00,,,0.00,Wunderground v.1.15,2013-12-25 09:20:00,
2013-12-25 04:25:00,17.9,13.3,30.32,East,84,4.0,13.0,82,0.00,,,0.00,Wunderground v.1.15,2013-12-25 09:25:00,
2013-12-25 04:30:00,17.9,13.1,30.32,SE,135,4.0,4.0,81,0.00,,,0.00,Wunderground v.1.15,2013-12-25 09:30:00,
2013-12-25 04:35:00,18.0,12.9,30.32,ESE,105,4.0,4.0,80,0.00,,,0.00,Wunderground v.1.15,2013-12-25 09:35:00,
2013-12-25 04:45:00,17.7,12.9,30.32,East,88,3.0,3.0,81,0.00,,,0.00,Wunderground v.1.15,2013-12-25 09:45:00,
2013-12-25 04:50:00,17.6,13.0,30.32,East,92,3.0,3.0,82,0.00,,,0.00,Wunderground v.1.15,2013-12-25 09:50:00,
2013-12-25 04:55:00,17.3,13.3,30.32,SE,124,3.0,3.0,84,0.00,,,0.00,Wunderground v.1.15,2013-12-25 09:55:00,
2013-12-25 05:00:00,17.1,13.6,30.32,ENE,67,3.0,3.0,86,0.00,,,0.00,Wunderground v.1.15,2013-12-25 10:00:00,
2013-12-25 05:05:00,16.9,13.7,30.32,East,101,3.0,3.0,87,0.00,,,0.00,Wunderground v.1.15,2013-12-25 10:05:00,
2013-12-25 05:15:00,16.8,13.9,30.31,East,91,4.0,4.0,88,0.00,,,0.00,Wunderground v.1.15,2013-12-25 10:15:00,
2013-12-25 05:20:00,16.9,14.2,30.31,SSE,148,4.0,5.0,89,0.00,,,0.00,Wunderground v.1.15,2013-12-25 10:20:00,
2013-12-25 05:25:00,16.8,14.1,30.31,SE,142,3.0,6.0,89,0.00,,,0.00,Wunderground v.1.15,2013-12-25 10:25:00,
2013-12-25 05:30:00,16.9,14.5,30.31,ESE,121,4.0,4.0,90,0.00,,,0.00,Wunderground v.1.15,2013-12-25 10:30:00,
2013-12-25 05:40:00,17.0,14.8,30.30,East,82,3.0,3.0,91,0.00,,,0.00,Wunderground v.1.15,2013-12-25 10:40:00,
2013-12-25 05:45:00,17.3,15.1,30.28,East,86,3.0,7.0,91,0.00,,,0.00,Wunderground v.1.15,2013-12-25 10:45:00,
2013-12-25 05:55:00,17.7,15.5,30.29,East,99,5.0,5.0,91,0.00,,,0.00,Wunderground v.1.15,2013-12-25 10:55:00,
2013-12-25 06:00:00,17.8,15.6,30.29,ENE,71,4.0,4.0,91,0.00,,,0.00,Wunderground v.1.15,2013-12-25 11:00:00,
2013-12-25 06:05:00,17.8,15.4,30.28,ESE,117,4.0,6.0,90,0.00,,,0.00,Wunderground v.1.15,2013-12-25 11:05:00,
2013-12-25 06:15:00,17.5,15.3,30.28,East,85,4.0,4.0,91,0.00,,,0.00,Wunderground v.1.15,2013-12-25 11:15:00,
2013-12-25 06:25:00,17.5,15.3,30.27,East,87,5.0,5.0,91,0.00,,,0.00,Wunderground v.1.15,2013-12-25 11:25:00,
2013-12-25 06:30:00,17.6,15.4,30.26,ESE,115,5.0,7.0,91,0.00,,,0.00,Wunderground v.1.15,2013-12-25 11:30:00,
2013-12-25 06:35:00,17.6,15.7,30.26,East,101,4.0,8.0,92,0.00,,,0.00,Wunderground v.1.15,2013-12-25 11:35:00,
2013-12-25 06:45:00,17.7,15.8,30.25,East,99,4.0,5.0,92,0.00,,,0.00,Wunderground v.1.15,2013-12-25 11:45:00,
2013-12-25 06:50:00,17.9,16.0,30.25,SSE,148,3.0,3.0,92,0.00,,,0.00,Wunderground v.1.15,2013-12-25 11:50:00,
2013-12-25 07:00:00,18.0,16.1,30.24,ESE,111,4.0,7.0,92,0.00,,,0.00,Wunderground v.1.15,2013-12-25 12:00:00,
2013-12-25 07:05:00,18.0,16.1,30.24,ENE,61,5.0,7.0,92,0.00,,,0.00,Wunderground v.1.15,2013-12-25 12:05:00,
2013-12-25 07:15:00,17.9,15.7,30.23,ENE,67,4.0,9.0,91,0.00,,,0.00,Wunderground v.1.15,2013-12-25 12:15:00,
2013-12-25 07:20:00,17.7,15.5,30.24,ESE,113,3.0,3.0,91,0.00,,,0.00,Wunderground v.1.15,2013-12-25 12:20:00,
2013-12-25 07:25:00,17.7,15.5,30.23,SE,144,3.0,4.0,91,0.00,,,0.00,Wunderground v.1.15,2013-12-25 12:25:00,
2013-12-25 07:35:00,17.6,15.4,30.22,East,100,4.0,5.0,91,0.00,,,0.00,Wunderground v.1.15,2013-12-25 12:35:00,
2013-12-25 07:40:00,17.6,15.4,30.22,East,88,4.0,5.0,91,0.00,,,0.00,Wunderground v.1.15,2013-12-25 12:40:00,
2013-12-25 07:45:00,17.7,15.5,30.22,East,90,5.0,5.0,91,0.00,,,0.00,Wunderground v.1.15,2013-12-25 12:45:00,
2013-12-25 07:50:00,17.7,15.5,30.22,ESE,102,4.0,11.0,91,0.00,,,0.00,Wunderground v.1.15,2013-12-25 12:50:00,
2013-12-25 07:55:00,17.7,15.5,30.22,ESE,113,4.0,11.0,91,0.00,,,0.00,Wunderground v.1.15,2013-12-25 12:55:00,
2013-12-25 08:05:00,17.7,15.3,30.21,SE,132,4.0,5.0,90,0.00,,,0.00,Wunderground v.1.15,2013-12-25 13:05:00,
2013-12-25 08:15:00,17.7,15.3,30.21,SE,133,4.0,8.0,90,0.00,,,0.00,Wunderground v.1.15,2013-12-25 13:15:00,
2013-12-25 08:20:00,17.7,15.3,30.21,ESE,105,4.0,4.0,90,0.00,,,0.00,Wunderground v.1.15,2013-12-25 13:20:00,
2013-12-25 08:25:00,17.6,14.9,30.21,ESE,109,3.0,7.0,89,0.00,,,0.00,Wunderground v.1.15,2013-12-25 13:25:00,
2013-12-25 08:35:00,17.5,14.8,30.21,SE,131,2.0,8.0,89,0.00,,,0.00,Wunderground v.1.15,2013-12-25 13:35:00,
2013-12-25 08:45:00,17.4,14.7,30.21,SSE,148,4.0,4.0,89,0.00,,,0.00,Wunderground v.1.15,2013-12-25 13:45:00,
2013-12-25 08:50:00,-999.9,-99.9,30.21,North,32767,-999.0,0.0,255,-99.99,,,0.00,Wunderground v.1.15,2013-12-25 13:50:00,
2013-12-25 08:55:00,-999.9,-99.9,30.21,North,32767,-999.0,0.0,255,-99.99,,,0.00,Wunderground v.1.15,2013-12-25 13:55:00,
2013-12-25 09:00:00,-999.9,-99.9,30.21,North,32767,-999.0,0.0,255,-99.99,,,0.00,Wunderground v.1.15,2013-12-25 14:00:00,
2013-12-25 09:05:00,-999.9,-99.9,30.21,North,32767,-999.0,0.0,255,-99.99,,,0.00,Wunderground v.1.15,2013-12-25 14:05:00,
2013-12-25 09:15:00,-999.9,-99.9,30.21,North,32767,-999.0,0.0,255,-99.99,,,0.00,Wunderground v.1.15,2013-12-25 14:15:00,
2013-12-25 09:20:00,-999.9,-99.9,30.22,North,32767,-999.0,0.0,255,-99.99,,,0.00,Wunderground v.1.15,2013-12-25 14:20:00,
2013-12-25 09:25:00,-999.9,-99.9,30.22,North,32767,-999.0,0.0,255,-99.99,,,0.00,Wunderground v.1.15,2013-12-25 14:25:00,
2013-12-25 09:30:00,-999.9,-99.9,30.22,North,32767,-999.0,0.0,255,-99.99,,,0.00,Wunderground v.1.15,2013-12-25 14:30:00,
2013-12-25 09:35:00,-999.9,-99.9,30.22,North,32767,-999.0,0.0,255,-99.99,,,0.00,Wunderground v.1.15,2013-12-25 14:35:00,
2013-12-25 09:45:00,-999.9,-99.9,30.22,North,32767,-999.0,0.0,255,-99.99,,,0.00,Wunderground v.1.15,2013-12-25 14:45:00,
2013-12-25 09:50:00,-999.9,-99.9,30.21,North,32767,-999.0,0.0,255,-99.99,,,0.00,Wunderground v.1.15,2013-12-25 14:50:00,
2013-12-25 09:55:00,-999.9,-99.9,30.21,North,32767,-999.0,0.0,255,-99.99,,,0.00,Wunderground v.1.15,2013-12-25 14:55:00,
2013-12-25 10:00:00,17.2,14.3,30.21,SE,128,0.0,0.0,88,0.00,,,0.00,Wunderground v.1.15,2013-12-25 15:00:00,
2013-12-25 10:05:00,17.2,14.3,30.21,SE,125,3.0,6.0,88,0.00,,,0.00,Wunderground v.1.15,2013-12-25 15:05:00,
2013-12-25 10:15:00,17.0,14.1,30.20,SE,132,4.0,6.0,88,0.00,,,0.00,Wunderground v.1.15,2013-12-25 15:15:00,
2013-12-25 10:20:00,17.1,14.4,30.20,ESE,121,3.0,6.0,89,0.00,,,0.00,Wunderground v.1.15,2013-12-25 15:20:00,
2013-12-25 10:25:00,17.1,14.4,30.20,SSE,161,3.0,6.0,89,0.00,,,0.00,Wunderground v.1.15,2013-12-25 15:25:00,
2013-12-25 10:30:00,17.1,14.4,30.20,ESE,122,2.0,6.0,89,0.00,,,0.00,Wunderground v.1.15,2013-12-25 15:30:00,
2013-12-25 10:35:00,17.2,14.5,30.20,SSE,157,2.0,6.0,89,0.00,,,0.00,Wunderground v.1.15,2013-12-25 15:35:00,
2013-12-25 10:40:00,17.2,14.3,30.20,SSE,165,3.0,5.0,88,0.00,,,0.00,Wunderground v.1.15,2013-12-25 15:40:00,
2013-12-25 10:50:00,17.4,14.5,30.20,SE,134,3.0,3.0,88,0.00,,,0.00,Wunderground v.1.15,2013-12-25 15:50:00,
2013-12-25 10:55:00,17.5,14.6,30.20,SE,138,4.0,5.0,88,0.00,,,0.00,Wunderground v.1.15,2013-12-25 15:55:00,
2013-12-25 11:00:00,17.5,14.6,30.19,SSW,207,3.0,6.0,88,0.00,,,0.00,Wunderground v.1.15,2013-12-25 16:00:00,
2013-12-25 11:10:00,17.7,14.8,30.19,SE,132,2.0,3.0,88,0.00,,,0.00,Wunderground v.1.15,2013-12-25 16:10:00,
2013-12-25 11:15:00,17.7,14.8,30.19,SSE,167,3.0,5.0,88,0.00,,,0.00,Wunderground v.1.15,2013-12-25 16:15:00,
2013-12-25 11:20:00,17.8,14.8,30.19,ESE,105,3.0,3.0,88,0.00,,,0.00,Wunderground v.1.15,2013-12-25 16:20:00,
2013-12-25 11:30:00,17.9,14.9,30.18,SE,128,3.0,5.0,88,0.00,,,0.00,Wunderground v.1.15,2013-12-25 16:30:00,
2013-12-25 11:35:00,17.9,14.9,30.18,ESE,109,3.0,5.0,88,0.00,,,0.00,Wunderground v.1.15,2013-12-25 16:35:00,
2013-12-25 11:40:00,18.0,15.0,30.18,East,97,2.0,2.0,88,0.00,,,0.00,Wunderground v.1.15,2013-12-25 16:40:00,
2013-12-25 11:45:00,18.1,15.4,30.18,ESE,113,1.0,3.0,89,0.00,,,0.00,Wunderground v.1.15,2013-12-25 16:45:00,
2013-12-25 11:50:00,18.1,15.4,30.17,SE,126,2.0,2.0,89,0.00,,,0.00,Wunderground v.1.15,2013-12-25 16:50:00,
2013-12-25 12:00:00,18.3,15.6,30.17,SSE,152,1.0,1.0,89,0.00,,,0.00,Wunderground v.1.15,2013-12-25 17:00:00,
2013-12-25 12:05:00,18.5,15.8,30.16,SE,140,1.0,1.0,89,0.00,,,0.00,Wunderground v.1.15,2013-12-25 17:05:00,
2013-12-25 12:15:00,18.7,16.0,30.16,SE,132,1.0,1.0,89,0.00,,,0.00,Wunderground v.1.15,2013-12-25 17:15:00,
2013-12-25 12:20:00,18.9,16.2,30.16,South,184,1.0,4.0,89,0.00,,,0.00,Wunderground v.1.15,2013-12-25 17:20:00,
2013-12-25 12:25:00,19.1,16.4,30.15,ESE,122,2.0,4.0,89,0.00,,,0.00,Wunderground v.1.15,2013-12-25 17:25:00,
2013-12-25 12:35:00,19.5,16.8,30.15,SE,132,2.0,2.0,89,0.00,,,0.00,Wunderground v.1.15,2013-12-25 17:35:00,
2013-12-25 12:40:00,19.7,17.0,30.14,East,92,2.0,2.0,89,0.00,,,0.00,Wunderground v.1.15,2013-12-25 17:40:00,
2013-12-25 12:45:00,20.0,17.3,30.14,SE,132,2.0,4.0,89,0.00,,,0.00,Wunderground v.1.15,2013-12-25 17:45:00,
2013-12-25 12:50:00,20.2,17.5,30.14,SSE,148,2.0,2.0,89,0.00,,,0.00,Wunderground v.1.15,2013-12-25 17:50:00,
2013-12-25 12:55:00,20.3,17.8,30.14,SSW,193,2.0,5.0,90,0.00,,,0.00,Wunderground v.1.15,2013-12-25 17:55:00,
2013-12-25 13:05:00,20.5,18.0,30.14,SSW,203,1.0,2.0,90,0.00,,,0.00,Wunderground v.1.15,2013-12-25 18:05:00,
2013-12-25 13:15:00,20.8,18.3,30.14,SSW,207,2.0,6.0,90,0.00,,,0.00,Wunderground v.1.15,2013-12-25 18:15:00,
2013-12-25 13:20:00,21.1,18.6,30.13,South,186,2.0,2.0,90,0.00,,,0.00,Wunderground v.1.15,2013-12-25 18:20:00,
2013-12-25 13:25:00,21.5,19.3,30.13,SW,232,3.0,6.0,91,0.00,,,0.00,Wunderground v.1.15,2013-12-25 18:25:00,
2013-12-25 13:35:00,22.2,20.0,30.12,SSW,206,6.0,9.0,91,0.00,,,0.00,Wunderground v.1.15,2013-12-25 18:35:00,
2013-12-25 13:40:00,22.3,20.1,30.12,SSW,209,7.0,7.0,91,0.00,,,0.00,Wunderground v.1.15,2013-12-25 18:40:00,
2013-12-25 13:50:00,22.3,20.1,30.12,SW,215,7.0,7.0,91,0.00,,,0.00,Wunderground v.1.15,2013-12-25 18:50:00,
2013-12-25 13:55:00,22.4,20.2,30.12,SSW,200,6.0,7.0,91,0.00,,,0.00,Wunderground v.1.15,2013-12-25 18:55:00,
2013-12-25 14:00:00,22.5,20.3,30.12,SW,215,6.0,6.0,91,0.00,,,0.00,Wunderground v.1.15,2013-12-25 19:00:00,
2013-12-25 14:05:00,22.5,20.3,30.11,SSW,195,7.0,7.0,91,0.00,,,0.00,Wunderground v.1.15,2013-12-25 19:05:00,
2013-12-25 14:15:00,22.6,20.4,30.11,SSW,199,7.0,7.0,91,0.00,,,0.00,Wunderground v.1.15,2013-12-25 19:15:00,
2013-12-25 14:20:00,22.7,20.7,30.11,SSW,211,7.0,7.0,92,0.00,,,0.00,Wunderground v.1.15,2013-12-25 19:20:00,
2013-12-25 14:25:00,22.7,20.7,30.11,SSW,213,7.0,7.0,92,0.00,,,0.00,Wunderground v.1.15,2013-12-25 19:25:00,
2013-12-25 14:30:00,22.9,20.9,30.11,SSW,209,7.0,7.0,92,0.00,,,0.00,Wunderground v.1.15,2013-12-25 19:30:00,
2013-12-25 14:35:00,22.9,21.2,30.11,SSW,203,8.0,9.0,93,0.00,,,0.00,Wunderground v.1.15,2013-12-25 19:35:00,
2013-12-25 14:45:00,23.4,21.9,30.11,SW,218,8.0,10.0,94,0.00,,,0.00,Wunderground v.1.15,2013-12-25 19:45:00,
2013-12-25 14:50:00,23.5,21.8,30.11,SSW,211,8.0,8.0,93,0.00,,,0.00,Wunderground v.1.15,2013-12-25 19:50:00,
2013-12-25 14:55:00,23.3,21.6,30.11,SW,218,8.0,8.0,93,0.00,,,0.00,Wunderground v.1.15,2013-12-25 19:55:00,
2013-12-25 15:00:00,23.5,22.0,30.11,WSW,237,9.0,11.0,94,0.00,,,0.00,Wunderground v.1.15,2013-12-25 20:00:00,
2013-12-25 15:05:00,23.5,21.8,30.10,SW,233,8.0,11.0,93,0.00,,,0.00,Wunderground v.1.15,2013-12-25 20:05:00,
2013-12-25 15:15:00,23.5,21.8,30.10,SSW,211,8.0,8.0,93,0.00,,,0.00,Wunderground v.1.15,2013-12-25 20:15:00,
2013-12-25 15:20:00,23.7,22.0,30.10,SW,236,8.0,8.0,93,0.00,,,0.00,Wunderground v.1.15,2013-12-25 20:20:00,
2013-12-25 15:25:00,23.7,22.0,30.10,SW,229,7.0,9.0,93,0.00,,,0.00,Wunderground v.1.15,2013-12-25 20:25:00,
2013-12-25 15:30:00,23.5,21.8,30.10,SSW,205,8.0,9.0,93,0.00,,,0.00,Wunderground v.1.15,2013-12-25 20:30:00,
2013-12-25 15:35:00,23.5,21.8,30.10,SW,228,9.0,9.0,93,0.00,,,0.00,Wunderground v.1.15,2013-12-25 20:35:00,
2013-12-25 15:40:00,23.5,21.5,30.10,SSW,200,8.0,8.0,92,0.00,,,0.00,Wunderground v.1.15,2013-12-25 20:40:00,
2013-12-25 15:50:00,23.4,21.2,30.10,SW,225,8.0,10.0,91,0.00,,,0.00,Wunderground v.1.15,2013-12-25 20:50:00,
2013-12-25 15:55:00,23.4,21.2,30.10,SW,221,9.0,10.0,91,0.00,,,0.00,Wunderground v.1.15,2013-12-25 20:55:00,
2013-12-25 16:00:00,23.4,20.9,30.10,SW,234,9.0,9.0,90,0.00,,,0.00,Wunderground v.1.15,2013-12-25 21:00:00,
2013-12-25 16:05:00,23.5,21.0,30.10,SW,218,8.0,10.0,90,0.00,,,0.00,Wunderground v.1.15,2013-12-25 21:05:00,
2013-12-25 16:15:00,23.6,21.1,30.10,SW,219,7.0,7.0,90,0.00,,,0.00,Wunderground v.1.15,2013-12-25 21:15:00,
2013-12-25 16:20:00,23.5,20.7,30.10,SW,221,8.0,9.0,89,0.00,,,0.00,Wunderground v.1.15,2013-12-25 21:20:00,
2013-12-25 16:25:00,23.5,20.7,30.10,SW,230,9.0,9.0,89,0.00,,,0.00,Wunderground v.1.15,2013-12-25 21:25:00,
2013-12-25 16:30:00,23.6,20.8,30.10,SW,228,9.0,9.0,89,0.00,,,0.00,Wunderground v.1.15,2013-12-25 21:30:00,
2013-12-25 16:40:00,23.8,20.8,30.10,SW,225,8.0,11.0,88,0.00,,,0.00,Wunderground v.1.15,2013-12-25 21:40:00,
2013-12-25 16:45:00,23.9,20.9,30.10,SW,227,9.0,11.0,88,0.00,,,0.00,Wunderground v.1.15,2013-12-25 21:45:00,
2013-12-25 16:50:00,23.9,21.1,30.11,SSW,196,9.0,16.0,89,0.00,,,0.00,Wunderground v.1.15,2013-12-25 21:50:00,
2013-12-25 16:55:00,23.8,20.5,30.10,SSW,210,9.0,16.0,87,0.00,,,0.00,Wunderground v.1.15,2013-12-25 21:55:00,
2013-12-25 17:05:00,24.0,21.0,30.10,SW,229,10.0,10.0,88,0.00,,,0.00,Wunderground v.1.15,2013-12-25 22:05:00,
2013-12-25 17:15:00,23.9,20.6,30.10,SW,231,10.0,10.0,87,0.00,,,0.00,Wunderground v.1.15,2013-12-25 22:15:00,
2013-12-25 17:20:00,24.0,20.7,30.10,SW,218,9.0,9.0,87,0.00,,,0.00,Wunderground v.1.15,2013-12-25 22:20:00,
2013-12-25 17:30:00,24.0,20.7,30.11,SW,225,9.0,9.0,87,0.00,,,0.00,Wunderground v.1.15,2013-12-25 22:30:00,
2013-12-25 17:35:00,24.1,20.8,30.11,SW,233,8.0,9.0,87,0.00,,,0.00,Wunderground v.1.15,2013-12-25 22:35:00,
2013-12-25 17:40:00,24.0,20.7,30.10,SW,227,8.0,9.0,87,0.00,,,0.00,Wunderground v.1.15,2013-12-25 22:40:00,
2013-12-25 17:45:00,24.0,20.7,30.10,SW,229,8.0,9.0,87,0.00,,,0.00,Wunderground v.1.15,2013-12-25 22:45:00,
2013-12-25 17:55:00,24.0,20.7,30.10,SW,231,8.0,9.0,87,0.00,,,0.00,Wunderground v.1.15,2013-12-25 22:55:00,
2013-12-25 18:05:00,24.0,20.4,30.10,SSW,213,9.0,9.0,86,0.00,,,0.00,Wunderground v.1.15,2013-12-25 23:05:00,
2013-12-25 18:15:00,24.1,21.1,30.10,SW,222,8.0,9.0,88,0.00,,,0.00,Wunderground v.1.15,2013-12-25 23:15:00,
2013-12-25 18:20:00,24.1,20.8,30.10,SW,228,8.0,8.0,87,0.00,,,0.00,Wunderground v.1.15,2013-12-25 23:20:00,
2013-12-25 18:25:00,24.0,21.0,30.10,SW,231,8.0,8.0,88,0.00,,,0.00,Wunderground v.1.15,2013-12-25 23:25:00,
2013-12-25 18:30:00,24.0,21.0,30.10,SW,219,8.0,11.0,88,0.00,,,0.00,Wunderground v.1.15,2013-12-25 23:30:00,
2013-12-25 18:40:00,24.1,20.8,30.10,SW,232,9.0,9.0,87,0.00,,,0.00,Wunderground v.1.15,2013-12-25 23:40:00,
2013-12-25 18:45:00,24.3,21.3,30.10,SW,225,9.0,10.0,88,0.00,,,0.00,Wunderground v.1.15,2013-12-25 23:45:00,
2013-12-25 18:50:00,24.3,21.3,30.10,SW,221,9.0,9.0,88,0.00,,,0.00,Wunderground v.1.15,2013-12-25 23:50:00,
2013-12-25 18:55:00,24.2,21.2,30.10,SW,223,9.0,9.0,88,0.00,,,0.00,Wunderground v.1.15,2013-12-25 23:55:00,
2013-12-25 19:00:00,24.2,21.2,30.10,SW,221,9.0,9.0,88,0.00,,,0.00,Wunderground v.1.15,2013-12-26 00:00:00,
2013-12-25 19:05:00,24.3,21.3,30.10,SW,225,9.0,9.0,88,0.00,,,0.00,Wunderground v.1.15,2013-12-26 00:05:00,
2013-12-25 19:15:00,24.4,21.6,30.10,WSW,237,9.0,11.0,89,0.00,,,0.00,Wunderground v.1.15,2013-12-26 00:15:00,
2013-12-25 19:25:00,24.4,21.1,30.11,SW,227,9.0,13.0,87,0.00,,,0.00,Wunderground v.1.15,2013-12-26 00:25:00,
2013-12-25 19:30:00,24.3,20.7,30.11,WSW,238,10.0,10.0,86,0.00,,,0.00,Wunderground v.1.15,2013-12-26 00:30:00,
2013-12-25 19:35:00,24.4,20.8,30.10,SW,236,9.0,10.0,86,0.00,,,0.00,Wunderground v.1.15,2013-12-26 00:35:00,
2013-12-25 19:45:00,24.3,20.2,30.10,WSW,238,8.0,9.0,84,0.00,,,0.00,Wunderground v.1.15,2013-12-26 00:45:00,
2013-12-25 19:50:00,24.4,20.3,30.10,SW,232,8.0,8.0,84,0.00,,,0.00,Wunderground v.1.15,2013-12-26 00:50:00,
2013-12-25 19:55:00,24.5,20.6,30.10,West,260,8.0,13.0,85,0.00,,,0.00,Wunderground v.1.15,2013-12-26 00:55:00,
2013-12-25 20:00:00,24.6,20.5,30.10,SW,223,9.0,9.0,84,0.00,,,0.00,Wunderground v.1.15,2013-12-26 01:00:00,
2013-12-25 20:05:00,24.5,20.6,30.10,SW,225,8.0,9.0,85,0.00,,,0.00,Wunderground v.1.15,2013-12-26 01:05:00,
2013-12-25 20:15:00,24.7,20.8,30.10,WSW,238,8.0,8.0,85,0.00,,,0.00,Wunderground v.1.15,2013-12-26 01:15:00,
2013-12-25 20:20:00,24.7,20.6,30.09,WSW,240,8.0,8.0,84,0.00,,,0.00,Wunderground v.1.15,2013-12-26 01:20:00,
2013-12-25 20:25:00,24.7,20.6,30.09,SW,234,8.0,9.0,84,0.00,,,0.00,Wunderground v.1.15,2013-12-26 01:25:00,
2013-12-25 20:30:00,24.8,20.4,30.09,WSW,248,8.0,9.0,83,0.00,,,0.00,Wunderground v.1.15,2013-12-26 01:30:00,
2013-12-25 20:35:00,24.9,20.5,30.09,WSW,254,9.0,11.0,83,0.00,,,0.00,Wunderground v.1.15,2013-12-26 01:35:00,
2013-12-25 20:40:00,24.8,20.4,30.09,SW,234,11.0,11.0,83,0.00,,,0.00,Wunderground v.1.15,2013-12-26 01:40:00,
2013-12-25 20:50:00,24.9,20.2,30.09,WSW,237,11.0,11.0,82,0.00,,,0.00,Wunderground v.1.15,2013-12-26 01:50:00,
2013-12-25 20:55:00,24.9,20.5,30.09,SW,234,11.0,12.0,83,0.00,,,0.00,Wunderground v.1.15,2013-12-26 01:55:00,
2013-12-25 21:00:00,25.0,20.6,30.09,WSW,244,11.0,11.0,83,0.00,,,0.00,Wunderground v.1.15,2013-12-26 02:00:00,
2013-12-25 21:05:00,24.9,20.5,30.09,WSW,248,11.0,11.0,83,0.00,,,0.00,Wunderground v.1.15,2013-12-26 02:05:00,
2013-12-25 21:15:00,24.9,20.2,30.09,WSW,238,11.0,12.0,82,0.00,,,0.00,Wunderground v.1.15,2013-12-26 02:15:00,
2013-12-25 21:25:00,25.1,20.1,30.09,SW,229,12.0,13.0,81,0.00,,,0.00,Wunderground v.1.15,2013-12-26 02:25:00,
2013-12-25 21:30:00,25.1,20.4,30.09,SW,236,11.0,12.0,82,0.00,,,0.00,Wunderground v.1.15,2013-12-26 02:30:00,
2013-12-25 21:35:00,25.1,20.4,30.08,WSW,238,11.0,12.0,82,0.00,,,0.00,Wunderground v.1.15,2013-12-26 02:35:00,
2013-12-25 21:40:00,25.1,20.1,30.08,WSW,240,11.0,11.0,81,0.00,,,0.00,Wunderground v.1.15,2013-12-26 02:40:00,
2013-12-25 21:45:00,25.0,20.0,30.09,SW,234,10.0,12.0,81,0.00,,,0.00,Wunderground v.1.15,2013-12-26 02:45:00,
2013-12-25 21:55:00,25.1,20.1,30.09,WSW,242,10.0,10.0,81,0.00,,,0.00,Wunderground v.1.15,2013-12-26 02:55:00,
2013-12-25 22:00:00,25.1,20.1,30.09,WSW,242,10.0,10.0,81,0.00,,,0.00,Wunderground v.1.15,2013-12-26 03:00:00,
2013-12-25 22:05:00,25.1,20.4,30.08,WSW,242,9.0,10.0,82,0.00,,,0.00,Wunderground v.1.15,2013-12-26 03:05:00,
2013-12-25 22:15:00,25.1,19.8,30.08,WSW,246,9.0,11.0,80,0.00,,,0.00,Wunderground v.1.15,2013-12-26 03:15:00,
2013-12-25 22:20:00,25.0,19.7,30.08,WSW,247,8.0,8.0,80,0.00,,,0.00,Wunderground v.1.15,2013-12-26 03:20:00,
2013-12-25 22:25:00,25.1,19.8,30.08,WSW,243,8.0,10.0,80,0.00,,,0.00,Wunderground v.1.15,2013-12-26 03:25:00,
2013-12-25 22:30:00,25.1,20.1,30.08,WSW,241,8.0,8.0,81,0.00,,,0.00,Wunderground v.1.15,2013-12-26 03:30:00,
2013-12-25 22:35:00,25.2,20.2,30.08,WSW,248,8.0,8.0,81,0.00,,,0.00,Wunderground v.1.15,2013-12-26 03:35:00,
2013-12-25 22:45:00,25.2,20.5,30.08,WSW,248,8.0,8.0,82,0.00,,,0.00,Wunderground v.1.15,2013-12-26 03:45:00,
2013-12-25 22:50:00,25.1,20.4,30.08,WSW,245,8.0,8.0,82,0.00,,,0.00,Wunderground v.1.15,2013-12-26 03:50:00,
2013-12-25 22:55:00,25.0,20.3,30.07,WSW,248,8.0,8.0,82,0.00,,,0.00,Wunderground v.1.15,2013-12-26 03:55:00,
2013-12-25 23:00:00,25.1,20.7,30.07,WSW,248,7.0,7.0,83,0.00,,,0.00,Wunderground v.1.15,2013-12-26 04:00:00,
2013-12-25 23:05:00,25.0,20.6,30.07,WSW,245,7.0,7.0,83,0.00,,,0.00,Wunderground v.1.15,2013-12-26 04:05:00,
2013-12-25 23:15:00,24.8,20.7,30.07,WSW,240,7.0,8.0,84,0.00,,,0.00,Wunderground v.1.15,2013-12-26 04:15:00,
2013-12-25 23:20:00,24.8,20.9,30.07,WSW,248,7.0,7.0,85,0.00,,,0.00,Wunderground v.1.15,2013-12-26 04:20:00,
2013-12-25 23:25:00,24.7,20.8,30.07,WSW,238,7.0,7.0,85,0.00,,,0.00,Wunderground v.1.15,2013-12-26 04:25:00,
2013-12-25 23:30:00,24.7,21.1,30.07,WSW,238,6.0,7.0,86,0.00,,,0.00,Wunderground v.1.15,2013-12-26 04:30:00,
2013-12-25 23:35:00,24.7,21.1,30.07,WSW,240,6.0,7.0,86,0.00,,,0.00,Wunderground v.1.15,2013-12-26 04:35:00,
2013-12-25 23:40:00,24.7,20.8,30.07,WSW,240,6.0,6.0,85,0.00,,,0.00,Wunderground v.1.15,2013-12-26 04:40:00,
2013-12-25 23:45:00,24.7,20.8,30.07,WSW,242,6.0,7.0,85,0.00,,,0.00,Wunderground v.1.15,2013-12-26 04:45:00,
2013-12-25 23:55:00,24.6,21.0,30.07,WSW,240,6.0,6.0,86,0.00,,,0.00,Wunderground v.1.15,2013-12-26 04:55:00,